Find Local Weather

World > North America > United States > New York

Colden, New York Regional Weather

Lat: 42.64N, Lon: 78.69W
Wx Zone: NYZ085
Feedback

Colden, NY Regional Weather

Expires:201903251200;;892748
ASUS41 KALY 251110
RWRALY

NEW YORK STATE HOURLY WEATHER ROUNDUP
NATIONAL WEATHER SERVICE ALBANY NY
700 AM EDT MON MAR 25 2019

NOTE: "FAIR" INDICATES FEW OR NO CLOUDS BELOW 12,000 FEET WITH NO
SIGNIFICANT WEATHER AND/OR NO OBSTRUCTIONS TO VISIBILITY.


NYZ001>004-010>016-019>021-085-251200-
WEST

  
CITY           SKY/WX    TMP DP  RH WIND       PRES   REMARKS
NIAGARA FALLS  FAIR      27  13  55 NE8       30.20R WCI  19          
BUFFALO        MOCLDY    29  17  61 NE12      30.18S WCI  19          
DUNKIRK        CLOUDY    31  26  82 NE14      30.16R WCI  21          
JAMESTOWN      CLOUDY    28  27  93 NE15      30.08R WCI  17          
WELLSVILLE     CLOUDY    28  26  92 NE8       30.07R WCI  20          
ROCHESTER      FAIR      28  10  46 NE7       30.21R WCI  21          
PENN YAN       CLOUDY    29  17  61 VRB5      30.16R WCI  24          
$$

             KEY
       WCI = WIND CHILL INDEX
       VSB = VISIBILITY
       HX  = HEAT INDEX
$$
  

SKY/WX - Weather  TMP - Temperature  DP - Dew Point  RH - Relative Humidity
WIND - Wind Direction/Speed PRES - Barometric Pressure VSB - Visibility
WCI - Wind Chill Index E13G22 Wind - East Wind 13 mph/Gusts of 22 mph